Regional Weather Roundup
Issued by NWS

Home | Current Version | Previous Version | Text Only | Print | Product List | Glossary Off
Versions: 1 2 3 4 5 6 7 8 9 10 11 12 13 14 15 16 17 18 19 20 21 22 23 24 25 26 27 28 29 30 31 32 33 34 35 36 37 38 39 40 41 42 43 44 45 46 47 48 49 50

000
ASUS43 KLOT 012000
RWRIL

ILLINOIS REGIONAL WEATHER ROUNDUP
NATIONAL WEATHER SERVICE CHICAGO/ROMEOVILLE IL
200 PM CST SUN MAR 01 2015

NOTE: "FAIR" INDICATES FEW OR NO CLOUDS BELOW 12,000 FEET WITH NO
SIGNIFICANT WEATHER AND/OR OBSTRUCTIONS TO VISIBILITY.

* THESE STATIONS ARE NOT UNDER NWS QUALITY CONTROL. THEY ALSO MAY NOT
  REPORT WEATHER SUCH AS PRECIPITATION OR FOG.

ILZ001-002-007-009-015-016-024-012100-
NORTHWEST ILLINOIS

CITY           SKY/WX    TMP DP  RH WIND       PRES   REMARKS
MOLINE         PTSUNNY   27  16  63 W9        30.33F WCI  18
STERLING*      MOSUNNY   27  18  69 W6        30.33F WCI  20
$$

ILZ003-004-008-010-011-017-018-012100-
NORTH CENTRAL ILLINOIS

CITY           SKY/WX    TMP DP  RH WIND       PRES   REMARKS
ROCKFORD       PTSUNNY   24  13  62 W9        30.30F WCI  14
FREEPORT*      PTSUNNY   23  15  72 SW9       30.31F WCI  13
DE KALB*       PTSUNNY   21  16  80 W8        30.30F WCI  11
$$

ILZ005-006-012>014-019>023-012100-
NORTHEAST ILLINOIS

CITY           SKY/WX    TMP DP  RH WIND       PRES   REMARKS
CHICAGO-OHARE  PTSUNNY   24  16  71 W10       30.29F WCI  14
CHICAGO-MIDWAY CLOUDY    27  19  72 SW13      30.30F WCI  16
AURORA         PTSUNNY   23  16  74 W9        30.31F WCI  13
LANSING*       FLURRIES  26  19  74 SW7       30.31F WCI  18
WAUKEGAN       PTSUNNY   24  16  71 SW9       30.27F WCI  14
DUPAGE AIRPORT PTSUNNY   22  15  75 W13       30.29F WCI  10
WHEELING       CLOUDY    25  15  66 W12       30.31F WCI  14
NORTHERLY ISL    N/A     27  19  72 SW2         N/A
$$

LMZ740>746-012100-
SOUTHERN LAKE MICHIGAN

STATION/POSITION SKY/WX   TEMP    WIND        PRES    VSBY  WAVE
                          AIR SEA DIR/SP/G                  HT/PER
                          (F)     (DEG/KT/KT) (MB)    (MI)  (FT/S)
WAUKEGAN HARBOR            24     220/ 14/ 17   N/A
HARRISON CRIB              24     170/  2/  4   N/A
BURNHAM HARBOR             27     230/  3/  6   N/A
CALUMET HARBOR             25     200/  5/  7 1025.1F
MICHIGAN CITY              25     290/  3/  4   N/A
$$

ILZ025>027-034>036-040-047-049-050-058-095>099-012100-
WEST-CENTRAL ILLINOIS

CITY           SKY/WX    TMP DP  RH WIND       PRES   REMARKS
QUINCY         MOSUNNY   27  18  69 NW6       30.36F WCI  20
MACOMB*        PTSUNNY   24  19  80 N7        30.37F WCI  16
$$

ILZ028>032-037-038-041>044-048-051>054-059>061-012100-
CENTRAL ILLINOIS

CITY           SKY/WX    TMP DP  RH WIND       PRES   REMARKS
DECATUR        CLOUDY    28  22  78 N9        30.33F WCI  19
PEORIA         PTSUNNY   29  18  63 W6        30.34F WCI  23
SPRINGFIELD    CLOUDY    29  21  72 N6        30.36S WCI  23
TAYLORVILLE    NOT AVBL
$$

ILZ033-039-045-046-055>057-062-063-012100-
EAST-CENTRAL ILLINOIS

CITY           SKY/WX    TMP DP  RH WIND       PRES   REMARKS
CHAMPAIGN      CLOUDY    26  22  84 NW9       30.32S WCI  17
MATTOON        LGT SNOW  28  24  85 NW10      30.30F FOG     WCI  19
$$

ILZ079-100>102-012100-
SOUTHWEST ILLINOIS

CITY           SKY/WX    TMP DP  RH WIND       PRES   REMARKS
BELLEVILLE     LGTSLEET  32  30  93 NW9       30.35F WCI  24
CAHOKIA*       MIX PCPN  31  27  85 NW9       30.35F WCI  23
$$

ILZ064>066-069>071-074>076-080>082-084>086-088>090-092>094-012100-
SOUTH-CENTRAL ILLINOIS

CITY           SKY/WX    TMP DP  RH WIND       PRES   REMARKS
CARBONDALE     CLOUDY    33  29  85 NW6       30.34F WCI  28
MARION         CLOUDY    34  32  93 NW9       30.34F WCI  26
MT. VERNON     CLOUDY    32  27  80 W3        30.35R
$$

ILZ067-068-072-073-078-083-087-091-012100-
SOUTHEAST ILLINOIS

CITY           SKY/WX    TMP DP  RH WIND       PRES   REMARKS
LAWRENCEVILLE  CLOUDY    33  32  96 W3        30.32F FOG
$$

ABBREVIATIONS USED IN REMARKS
   TC - TEMPERATURE IN CELSIUS
  WCI - WIND CHILL INDEX
   HX - HEAT INDEX
  VSB - VISIBILITY
$$




USA.gov is the U.S. government's official web portal to all federal, state and local government web resources and services.